World > North America > United States > South Carolina > Rains  

Rains, SC Hourly Weather Updates

Feedback E-mail the Weather

Quick Clicks

Rains, SC Weather Maps

°F °C°F °C
Rains Weather Map
UTC Time: 4/18/2024, 05:05
Your Time:

Rains, SC Regional Weather

Expires:202404180500;;934930
ASUS42 KCAE 180410
RWRCAE
REGIONAL WEATHER ROUNDUP
NATIONAL WEATHER SERVICE COLUMBIA SC
1200 AM EDT THU APR 18 2024

NOTE: "FAIR" INDICATES FEW OR NO CLOUDS BELOW 12,000 FEET WITH NO
SIGNIFICANT WEATHER AND/OR OBSTRUCTIONS TO VISIBILITY.

NOT ALL STATIONS ARE QUALITY CONTROLLED BY THE NATIONAL 
WEATHER SERVICE. USE DATA WITH CAUTION...ESPECIALLY 
DEWPOINT OBSERVATIONS.


SCZ001>059-115-116-135>137-GAZ040-063>065-077-180500-
...UPSTATE SOUTH CAROLINA...
  
CITY           SKY/WX    TMP DP  RH WIND       PRES   REMARKS
ANDERSON       CLOUDY    67  55  65 SW5       30.09F                  
LIBERTY        PTCLDY    67  53  60 W7        30.08S                  
SPARTANBURG    MOCLDY    66  46  48 W8        30.06F                  
GREENVILLE     PTCLDY    68  49  50 W9        30.08F                  
GREENWOOD      CLOUDY    67  57  70 W5        30.10R                  
GREER          PTCLDY    66  47  50 W7        30.07F                  
ROCK HILL      CLOUDY    66  57  72 SW8       30.05F                  
CHESTER        CLOUDY    68  57  68 SW3       30.08S                  
LAURENS        CLOUDY    68  54  60 W6        30.08S                  


...CENTRAL SOUTH CAROLINA...
  
CITY           SKY/WX    TMP DP  RH WIND       PRES   REMARKS
COLUMBIA APT   CLOUDY    73  59  61 CALM      30.05S                  
COLUMBIA OWENS CLOUDY    70  59  68 CALM      30.06S                  
ORANGEBURG     CLOUDY    72  64  76 SW3       30.05S                  
NEWBERRY       CLOUDY    70  59  68 W3        30.11R                  
AIKEN          CLOUDY    71  57  60 W5        30.09S                  
BARNWELL       CLOUDY    72  64  78 SW8G14    30.06R                  
MANNING        CLOUDY    68  61  77 SW6       30.08R                  
CAMDEN         CLOUDY    72  59  64 S5        30.06S                  
LANCASTER      CLOUDY    68  61  77 W3        30.06S                  
WINNSBORO      CLOUDY    70  59  68 SW5       30.07R                  


...EASTERN AND COASTAL SOUTH CAROLINA...
  
CITY           SKY/WX    TMP DP  RH WIND       PRES   REMARKS
MYRTLE BEACH   CLOUDY    69  67  93 SW12G21   30.06S                  
N MYRTLE BCH   CLOUDY    69  63  81 SW15      30.05S                  
CONWAY         CLOUDY    68  61  77 SW7       30.05R                  
MARION         CLOUDY    68  63  83 SW5       30.05S                  
HARTSVILLE     CLOUDY    68  59  73 CALM      30.05S                  
FLORENCE       CLOUDY    71  63  75 SW8       30.05S                  
DARLINGTON     CLOUDY    69  62  78 SW5       30.05S                  
CHARLESTON APT CLOUDY    70  64  81 S14       30.09S                  
MOUNT PLEASANT CLOUDY    70  70 100 S12       30.09R                  
WALTERBORO     CLOUDY    68  64  88 S12       30.10F                  
BEAUFORT       CLOUDY    72  66  81 S6        30.11S                  
HILTON HEAD    CLOUDY    70  66  88 SW8       30.13S                  


...EASTERN GEORGIA...
  
CITY           SKY/WX    TMP DP  RH WIND       PRES   REMARKS
AUGUSTA BUSH F LGT RAIN  74  57  55 SW10      30.07R                  
AUGUSTA DANIEL LGT RAIN  75  56  51 SW10G17   30.09R                  
THOMSON        LGT RAIN  68  65  89 N7        30.09S                  
WASHINGTON     CLOUDY    69  62  80 CALM      30.10F                  
CLAXTON        CLOUDY    71  65  82 CALM      30.11F                  
STATESBORO     CLOUDY    69  63  81 CALM      30.11F                  
SAVANNAH       CLOUDY    71  64  78 SW6       30.12S                  


...SOUTHERN NORTH CAROLINA...
  
CITY           SKY/WX    TMP DP  RH WIND       PRES   REMARKS
CHARLOTTE      CLOUDY    70  53  54 SW8       30.04F                  
MONROE         CLOUDY    68  60  75 SW9       30.03F                  
WADESBORO      CLOUDY    70  54  56 CALM      30.03S                  
ROCKINGHAM     CLOUDY    71  58  63 S5        30.04R                  
RUTHERFORDTON  PTCLDY    68  45  42 SW3       30.06F                  
ASHEVILLE      PTCLDY    59  48  67 CALM      30.11S                  

$$
  

SKY/WX - Weather  TMP - Temperature  DP - Dew Point  RH - Humidity
WIND - Wind Direction/Speed PRES - Barometric Pressure VSB - Visibility
WCI - Wind Chill Index E13G22 Wind - East Wind 13 mph/Gusts of 22 mph

Trending Headlines

Trending Entertainment Headlines

Rains Radar Loop

Use the map search tool if you want to place a location marker on the radar map...

Rains Quick Facts

National Two Day Weather Forecast


E-mail the Rains Weather Forecast

Voice your opinion or tell us about page issues...